Voltar ao catálogo

STARLINK-32402

AtivoComunicaçõesVLEO
NORAD 61708·PAYLOAD·🇺🇸 United States

Lançado Oct 30, 2024 de Cape Canaveral Space Force Station

Loading…

Próximas Passagens (próximas 24 horas)

TLE

AtualizadoSource: CelesTrak SupGP

Época: Sep 15, 2026, 02:24 UTC

1 61708C 24196B   26258.10048611  .00030615  00000+0  90433-3 0  2582
2 61708  53.1571 298.6767 0001364  88.0690  26.6857 15.34382385    13

Acompanhe STARLINK-32402 em tempo real com AllMySat

Download on the App Store